Glidden, IA

10:39 PM CST on February 10, 2016 (GMT -0600)
Neu

Weather History for KCIN - May, 2013

Change the Weather History Date:

Wednesday, May 1, 2013

  Actual Average (WUND) Record (WUND)
Temperature  
Mean Temperature 43 °F -  
Max Temperature 53 °F - - (-1)
Min Temperature 33 °F - - (-1)
Degree Days  
Heating Degree Days 22    
Moisture  
Dew Point 39 °F    
Average Humidity 92    
Maximum Humidity 100    
Minimum Humidity 76    
Precipitation  
Precipitation 0.90 in - - ()
Sea Level Pressure  
Sea Level Pressure 30.20 in    
Wind  
Wind Speed 20 mph (North)    
Max Wind Speed 33 mph    
Max Gust Speed 38 mph    
Visibility 7 miles    
Events Rain    
Averages and records for this station are not official NWS values.
T = Trace of Precipitation, MM = Missing Value Source: NWS Daily Summary

Daily Weather History Graph

Daily Weather History Graph

Search for Another Location

Airport or City:

Trip Planner

Search our weather history database for the weather conditions in past years. The results will help you decide how hot, cold, wet, or windy it might be!

Date:

Astronomy

May. 01, 2013 Rise Set
Actual Time 6:14 AM CDT 8:18 PM CDT
Civil Twilight 5:44 AM CDT 8:49 PM CDT
Nautical Twilight 5:06 AM CDT 9:26 PM CDT
Astronomical Twilight 4:26 AM CDT 10:07 PM CDT
Moon 1:28 AM CDT (5/1) 11:54 AM CDT (5/1)
Length of Visible Light 15h 04m
Length of Day
14h 03m
Waning Gibbous, 59% of the Moon is Illuminated
May 1
Waning Gibbous
May 2
Last Quarter
May 9
New
May 17
First Quarter
May 24
Full

Hourly Weather History & Observations

Time (CDT) Temp. Windchill Dew Point Humidity Pressure Visibility Wind Dir Wind Speed Gust Speed Precip Events Conditions
12:15 AM 53.6 °F - 48.2 °F 82% 29.91 in 10.0 mi NE 13.8 mph - N/A   Overcast
12:35 AM 53.6 °F - 48.2 °F 82% 29.97 in 10.0 mi NNW 12.7 mph - N/A   Overcast
12:55 AM 53.6 °F - 48.2 °F 82% 29.96 in 10.0 mi North 13.8 mph - 0.01 in   Light Drizzle
1:15 AM 51.8 °F - 50.0 °F 94% 29.98 in 10.0 mi North 17.3 mph - N/A   Light Drizzle
1:35 AM 51.8 °F - 46.4 °F 82% 29.98 in 10.0 mi NE 15.0 mph 23.0 mph N/A   Light Drizzle
1:55 AM 51.8 °F - 44.6 °F 76% 29.98 in 8.0 mi NNE 33.4 mph - 0.01 in   Overcast
2:15 AM 50.0 °F - 46.4 °F 87% 30.00 in 10.0 mi North 17.3 mph 25.3 mph N/A Rain Light Rain
2:35 AM 50.0 °F - 46.4 °F 87% 29.98 in 10.0 mi North 23.0 mph 29.9 mph N/A   Overcast
2:55 AM 50.0 °F - 44.6 °F 82% 30.00 in 10.0 mi NNE 21.9 mph 27.6 mph 0.01 in   Overcast
3:15 AM 50.0 °F - 44.6 °F 82% 30.02 in 10.0 mi North 16.1 mph 25.3 mph N/A   Overcast
3:35 AM 48.2 °F - 44.6 °F 87% 30.04 in - North 20.7 mph 26.5 mph N/A   Overcast
3:55 AM 48.2 °F - 44.6 °F 87% 30.04 in 10.0 mi North 20.7 mph 27.6 mph N/A   Overcast
4:15 AM 48.2 °F - 44.6 °F 87% 30.04 in 10.0 mi NNE 20.7 mph 28.8 mph N/A   Overcast
4:35 AM 48.2 °F - 44.6 °F 87% 30.05 in 10.0 mi North 17.3 mph 24.2 mph N/A   Overcast
4:55 AM 48.2 °F - 44.6 °F 87% 30.06 in 10.0 mi North 17.3 mph - N/A   Overcast
5:15 AM 48.2 °F - 44.6 °F 87% 30.08 in 10.0 mi North 17.3 mph - N/A   Overcast
5:35 AM 46.4 °F 38.7 °F 42.8 °F 87% 30.09 in 10.0 mi NNE 20.7 mph 28.8 mph N/A   Overcast
5:55 AM 46.4 °F 39.5 °F 41.0 °F 81% 30.10 in 10.0 mi North 17.3 mph 28.8 mph N/A   Overcast
6:15 AM 46.4 °F 39.2 °F 42.8 °F 87% 30.10 in 10.0 mi NNE 18.4 mph 25.3 mph N/A   Overcast
6:35 AM 46.4 °F 38.7 °F 41.0 °F 81% 30.12 in 10.0 mi NNE 20.7 mph - N/A   Overcast
7:15 AM 44.6 °F 35.9 °F 41.0 °F 87% 30.14 in 10.0 mi NNE 23.0 mph 31.1 mph N/A   Overcast
7:35 AM 44.6 °F 36.6 °F 42.8 °F 93% 30.15 in 10.0 mi NNE 19.6 mph - N/A   Overcast
8:15 AM 44.6 °F 35.5 °F 42.8 °F 93% 30.17 in 10.0 mi North 25.3 mph - N/A   Overcast
8:35 AM 42.8 °F 32.7 °F 39.2 °F 87% 30.19 in 10.0 mi North 27.6 mph 34.5 mph N/A   Overcast
9:15 AM 41.0 °F 30.5 °F 39.2 °F 93% 30.18 in 10.0 mi North 26.5 mph 34.5 mph N/A   Overcast
9:35 AM 41.0 °F 31.6 °F 39.2 °F 93% 30.20 in 10.0 mi North 20.7 mph 31.1 mph N/A   Overcast
9:55 AM 41.0 °F 31.1 °F 37.4 °F 87% 30.19 in 10.0 mi North 23.0 mph 33.4 mph N/A   Overcast
10:15 AM 39.2 °F 28.5 °F 37.4 °F 93% 30.22 in 10.0 mi North 24.2 mph 33.4 mph N/A   Overcast
10:35 AM 39.2 °F 27.2 °F 35.6 °F 87% 30.21 in 10.0 mi North 31.1 mph 38.0 mph N/A   Overcast
10:55 AM 39.2 °F 28.7 °F 37.4 °F 93% 30.23 in 10.0 mi North 23.0 mph - N/A   Overcast
11:15 AM 39.2 °F 28.5 °F 37.4 °F 93% 30.23 in 10.0 mi North 24.2 mph - N/A   Overcast
11:35 AM 39.2 °F 28.0 °F 37.4 °F 93% 30.21 in 10.0 mi North 26.5 mph - N/A   Overcast
11:55 AM 41.0 °F 30.7 °F 37.4 °F 87% 30.23 in 10.0 mi NNE 25.3 mph 33.4 mph N/A   Overcast
12:15 PM 39.2 °F 29.3 °F 37.4 °F 93% 30.23 in 10.0 mi North 20.7 mph 29.9 mph N/A   Overcast
12:35 PM 41.0 °F 32.2 °F 37.4 °F 87% 30.23 in 10.0 mi NNE 18.4 mph 28.8 mph N/A   Overcast
12:55 PM 41.0 °F 31.4 °F 37.4 °F 87% 30.23 in - NNE 21.9 mph 31.1 mph N/A   Overcast
1:15 PM 41.0 °F 31.6 °F 37.4 °F 87% 30.24 in 10.0 mi NNE 20.7 mph 28.8 mph N/A   Overcast
1:35 PM 41.0 °F 30.9 °F 37.4 °F 87% 30.25 in 10.0 mi North 24.2 mph - N/A   Overcast
2:15 PM 39.2 °F 29.0 °F 37.4 °F 93% 30.28 in 10.0 mi North 21.9 mph 28.8 mph N/A   Overcast
2:35 PM 39.2 °F 28.7 °F 35.6 °F 87% 30.28 in 10.0 mi NNE 23.0 mph 28.8 mph N/A   Overcast
2:55 PM 37.4 °F 26.1 °F 35.6 °F 93% 30.30 in 3.0 mi North 24.2 mph 31.1 mph N/A Rain Light Rain
3:15 PM 37.4 °F 26.6 °F 35.6 °F 93% 30.29 in 2.5 mi North 21.9 mph 28.8 mph N/A Rain Light Rain
3:35 PM 35.6 °F 23.7 °F 35.6 °F 100% 30.31 in 1.5 mi North 24.2 mph 31.1 mph N/A   Overcast
3:55 PM 35.6 °F 24.8 °F 35.6 °F 100% 30.30 in 2.0 mi North 19.6 mph 26.5 mph N/A Rain Light Rain
4:15 PM 35.6 °F 24.2 °F 33.8 °F 93% 30.31 in 3.0 mi North 21.9 mph 27.6 mph N/A Rain Light Rain
4:35 PM 35.6 °F 25.5 °F 33.8 °F 93% 30.32 in 1.5 mi NNE 17.3 mph 28.8 mph N/A   Overcast
5:15 PM 33.8 °F 21.3 °F 33.8 °F 100% 30.33 in 2.5 mi North 24.2 mph - N/A   Overcast
5:35 PM 33.8 °F 22.2 °F 33.8 °F 100% 30.33 in 1.8 mi North 20.7 mph 31.1 mph N/A   Overcast
5:55 PM 33.8 °F 20.1 °F 33.8 °F 100% 30.33 in 2.0 mi North 29.9 mph 36.8 mph 0.01 in   Overcast
6:15 PM 33.8 °F 21.0 °F 33.8 °F 100% 30.33 in 2.0 mi North 25.3 mph 38.0 mph N/A   Overcast
6:35 PM 33.8 °F 21.0 °F 33.8 °F 100% 30.34 in 3.0 mi North 25.3 mph 36.8 mph N/A   Overcast
6:55 PM 33.8 °F 20.1 °F 33.8 °F 100% 30.32 in 4.0 mi North 29.9 mph 36.8 mph 0.01 in Rain Light Rain
7:15 PM 33.8 °F 20.8 °F 33.8 °F 100% 30.32 in 2.0 mi NNE 26.5 mph - N/A   Overcast
7:35 PM 33.8 °F 21.6 °F 33.8 °F 100% 30.36 in 3.0 mi North 23.0 mph 28.8 mph N/A   Overcast
7:55 PM 33.8 °F 21.0 °F 33.8 °F 100% 30.33 in 2.0 mi North 25.3 mph 35.7 mph 0.09 in   Overcast
8:35 PM 33.8 °F 22.2 °F 33.8 °F 100% 30.34 in 3.0 mi North 20.7 mph 29.9 mph N/A   Overcast
8:55 PM 33.8 °F 21.6 °F 33.8 °F 100% 30.34 in 3.0 mi North 23.0 mph 28.8 mph 0.22 in   Overcast
9:35 PM 33.8 °F 21.6 °F 33.8 °F 100% 30.38 in 3.0 mi North 23.0 mph - N/A Rain Heavy Rain
9:55 PM 33.8 °F 22.2 °F 33.8 °F 100% 30.40 in 1.2 mi North 20.7 mph 28.8 mph 0.10 in   Overcast
10:15 PM 33.8 °F 20.8 °F 33.8 °F 100% 30.36 in 0.8 mi NNE 26.5 mph - N/A   Overcast
10:35 PM 33.8 °F 20.8 °F 33.8 °F 100% 30.36 in 1.0 mi North 26.5 mph 33.4 mph N/A   Overcast
10:55 PM 33.8 °F 21.3 °F 33.8 °F 100% 30.37 in 1.2 mi North 24.2 mph 31.1 mph 0.19 in Rain Heavy Rain
11:15 PM 33.8 °F 21.0 °F 33.8 °F 100% 30.36 in 2.5 mi North 25.3 mph 33.4 mph N/A Rain Heavy Rain
11:35 PM 33.8 °F 21.9 °F 33.8 °F 100% 30.38 in 5.0 mi North 21.9 mph 31.1 mph N/A   Overcast
11:55 PM 33.8 °F 22.2 °F 33.8 °F 100% 30.38 in 4.0 mi NNE 20.7 mph - 0.25 in   Overcast